[[{"header":{"parameterUnit":"m.s-1","parameterCategory":2,"la1":30.2991,"la2":30.254,"lo1":-89.0895,"lo2":-89.0444,"dy":0.0017,"dx":0.0017,"nx":28,"ny":28,"refTime":"2023-09-27T09:00:00:Z","depth":"0","parameterNumber":2,"parameterNumberName":"U-component_of_CURRENTS"},"data":[0,0,0,0,0,0,0,0,0,0,0,0,0,0,0,0,0,0,0,0,0,0,0,0,0,0,0,0,0,0,0,0,0,0,0,0,0,0,0,0,0,0,0,0,0,0,0,0,0,0,0,0,0,0,0,0,0,0,0.1519,0.1519,0,0.1495,0.1495,0.1494,0.1479,0.1479,0.1479,0.1479,0.1444,0.1443,0.1442,0,0,0,0,0,0,0,0,0,0,0,0,0,0.1542,0.1541,0.1519,0.1519,0.1519,0.1495,0.1495,0.1494,0.1479,0.1479,0.1479,0.1479,0.1444,0.1443,0.1442,0,0,0,0,0,0,0,0,0,0,0,0,0,0.1525,0.1541,0.1519,0.1509,0.1508,0.1495,0.1495,0.1494,0.1479,0.1479,0.1479,0.1479,0.1445,0.1443,0.1442,0.1434,0,0,0.1438,0.1437,0,0,0,0,0,0,0,0,0.1526,0.1524,0.1511,0.151,0.1508,0.1491,0.149,0.1474,0.1479,0.1489,0.1479,0.1479,0.1459,0.1457,0.1451,0.1432,0.1431,0.1438,0.1437,0.1436,0.1436,0,0,0,0,0,0,0,0.1527,0.1525,0.1509,0.151,0.1509,0.1502,0.15,0.1487,0.1474,0.1488,0.1487,0.1486,0.1459,0.1452,0.145,0.143,0.1438,0.1437,0.1436,0.1435,0.1406,0.1406,0,0,0,0,0,0,0.1533,0.1526,0.1509,0.1508,0.1518,0.1502,0.1499,0.1496,0.1474,0.1471,0.1486,0.1485,0.1455,0.1452,0.1449,0.1425,0.1436,0.1435,0.1434,0.1406,0.1406,0.1406,0,0,0,0,0,0,0.1533,0.1531,0.151,0.1518,0.1515,0.1502,0.1498,0.1495,0.1491,0.1473,0.1469,0.1484,0.1455,0.1451,0.1436,0.1424,0.1434,0.1433,0.1406,0.1406,0.1406,0.1386,0,0,0,0,0,0,0.1534,0.1532,0.1532,0.1518,0.1514,0.1503,0.1498,0.1495,0.149,0.1489,0.147,0.1467,0.1454,0.1438,0.1434,0.1422,0.1432,0.1406,0.1406,0.1406,0.1386,0.1385,0.1384,0,0,0,0,0,0.1535,0.1529,0.1532,0.153,0.1515,0.1503,0.15,0.149,0.149,0.1487,0.1474,0.1467,0.1436,0.1437,0.1433,0.142,0.1406,0.1406,0.1406,0.1387,0.1385,0.1384,0,0,0,0,0,0,0.1522,0.1527,0.1529,0.1521,0.1516,0.1501,0.1495,0.1493,0.148,0.1478,0.1464,0.1459,0.1441,0.1439,0.144,0.1415,0.1422,0.1421,0.1408,0.1407,0.1406,0.1397,0.1431,0,0,0,0,0,0.1525,0.1528,0.1526,0.1516,0.1518,0.151,0.1505,0.1499,0.1486,0.1481,0.1469,0.1456,0.1439,0.143,0.1417,0.1402,0.14,0.1395,0.1394,0.1392,0.1384,0.1365,0.136,0.1407,0.1407,0.1407,0,0,0.1508,0.1518,0.1513,0.1516,0.1511,0.1502,0.1506,0.1497,0.1483,0.1479,0.1457,0.145,0.1435,0.1414,0.1407,0.141,0.1383,0.1393,0.1391,0.1384,0.1364,0.136,0.1355,0.1407,0.1407,0.1407,0,0,0.148,0.1495,0.1489,0.1494,0.1497,0.1495,0.1495,0.1487,0.148,0.1464,0.1454,0.1441,0.1422,0.1403,0.1392,0.1379,0.1377,0.1381,0.1365,0.1346,0.1341,0.1337,0.1346,0.1343,0.1381,0.1381,0.1381,0,0.1453,0.1456,0.1481,0.1481,0.1478,0.1492,0.1475,0.1472,0.1458,0.1446,0.1456,0.142,0.1412,0.1375,0.1372,0.1373,0.1373,0.1368,0.1342,0.1338,0.1334,0.1345,0.1341,0.138,0.138,0.138,0.138,0,0.1425,0.1429,0.1426,0.1435,0.1437,0.1426,0.1432,0.1429,0.143,0.1422,0.1397,0.139,0.1366,0.1366,0.1362,0.1331,0.1345,0.1342,0.1342,0.1328,0.1341,0.1338,0.1378,0.1379,0.1379,0.1379,0,0,0.1336,0.1393,0.1388,0.1396,0.1413,0.1407,0.1397,0.1382,0.1366,0.1367,0.1337,0.1322,0.1326,0.1315,0.1313,0.1301,0.1284,0.1311,0.131,0.1313,0.1261,0.1207,0.1199,0.1274,0.1273,0.1272,0.1287,0,0.1292,0.1302,0.1333,0.1319,0.1322,0.1344,0.1331,0.1327,0.1325,0.1306,0.1305,0.128,0.1304,0.1291,0.1283,0.1273,0.1273,0.1282,0.1279,0.128,0.1226,0.1191,0.1027,0.1019,0.1284,0.1283,0.1283,0,0.1243,0.1263,0.1254,0.1281,0.1279,0.127,0.1259,0.125,0.124,0.1237,0.1227,0.1229,0.121,0.1235,0.1225,0.1229,0.1245,0.1251,0.1251,0.12,0.1218,0.1073,0.1004,0.091,0.1279,0.1279,0.1279,0,0.1182,0.1201,0.1198,0.1205,0.1233,0.122,0.1225,0.1221,0.1205,0.1191,0.1176,0.1169,0.1154,0.1166,0.1193,0.1201,0.1189,0.12,0.1176,0.1175,0.1032,0.1018,0.0859,0.1197,0.1197,0.1197,0.1197,0,0.1129,0.1127,0.1172,0.1169,0.1145,0.1182,0.1146,0.1151,0.1142,0.1105,0.1136,0.1105,0.1132,0.1135,0.117,0.1158,0.1173,0.1159,0.1159,0.1024,0.1009,0.0921,0.0925,0.1198,0.1197,0.1197,0.1197,0,0.1074,0.1105,0.11,0.1121,0.112,0.1104,0.1102,0.1075,0.1085,0.1038,0.103,0.1042,0.1034,0.1079,0.1094,0.1111,0.1056,0.1123,0.0978,0.0958,0.0821,0.0833,0.0746,0.0749,0.1072,0.107,0.1069,0,0.1053,0.1047,0.1055,0.1036,0.1042,0.103,0.1008,0.103,0.1006,0.0991,0.0957,0.0952,0.0933,0.0954,0.0955,0.0986,0.0992,0.0875,0.0848,0.0767,0.0781,0.0817,0.083,0.067,0.0666,0.0662,0.0659,0,0.1001,0.1003,0.1002,0.0968,0.0942,0.0917,0.0901,0.0878,0.0886,0.0859,0.083,0.082,0.0811,0.0742,0.0778,0.0784,0.0761,0.0801,0.0728,0.0451,0.0466,0.0483,0.0747,0.0627,0.063,0.0633,0.0634,0.0636,0.0952,0.0939,0.0929,0.0894,0.0856,0.0806,0.0785,0.0765,0.0727,0.0675,0.0694,0.0615,0.0528,0.0528,0.0556,0.0399,0.0559,0.0339,0.0366,0.0416,0.0374,0.0585,0.0458,0.046,0.0462,0.0463,0.0465,0,0.0887,0.0885,0.0852,0.0812,0.0757,0.0756,0.071,0.0685,0.0635,0.0542,0.0509,0.0276,0.016,0.0102,-0.0057,-0.0067,-0.0003,-0.0066,-0.0094,-0.0046,0.0104,0.0035,-0.0206,-0.0206,-0.0206,-0.0206,-0.0206,-0.0206,0.0852,0.0823,0.0819,0.073,0.0695,0.0635,0.0606,0.056,0.0499,0.0314,0.0133,0.004,-0.0166,-0.0412,-0.0538,-0.0489,-0.042,-0.0424,-0.028,-0.0258,-0.0219,-0.0182,-0.0251,-0.0549,-0.0549,-0.0499,-0.0499,-0.0499]},{"header":{"parameterUnit":"m.s-1","parameterCategory":2,"la1":30.2991,"la2":30.254,"lo1":-89.0895,"lo2":-89.0444,"dy":0.0017,"dx":0.0017,"nx":28,"ny":28,"refTime":"2023-09-27T09:00:00:Z","depth":"0","parameterNumber":3,"parameterNumberName":"V-component_of_CURRENTS"},"data":[0,0,0,0,0,0,0,0,0,0,0,0,0,0,0,0,0,0,0,0,0,0,0,0,0,0,0,0,0,0,0,0,0,0,0,0,0,0,0,0,0,0,0,0,0,0,0,0,0,0,0,0,0,0,0,0,0,0,-0.2055,-0.2056,0,-0.2134,-0.2135,-0.2136,-0.2143,-0.2142,-0.2141,-0.214,-0.2147,-0.2148,-0.2149,0,0,0,0,0,0,0,0,0,0,0,0,0,-0.1923,-0.1926,-0.2055,-0.2056,-0.2057,-0.2134,-0.2135,-0.2136,-0.2143,-0.2142,-0.2141,-0.214,-0.2147,-0.2148,-0.2149,0,0,0,0,0,0,0,0,0,0,0,0,0,-0.199,-0.1926,-0.2054,-0.2069,-0.2071,-0.2134,-0.2135,-0.2137,-0.2143,-0.2142,-0.2141,-0.214,-0.2146,-0.2148,-0.2149,-0.2184,0,0,-0.2154,-0.2154,0,0,0,0,0,0,0,0,-0.1986,-0.1994,-0.2066,-0.2068,-0.2071,-0.2127,-0.2091,-0.2149,-0.2144,-0.2116,-0.214,-0.2139,-0.2134,-0.2137,-0.2156,-0.2185,-0.2185,-0.2154,-0.2155,-0.2155,-0.2156,0,0,0,0,0,0,0,-0.1981,-0.1991,-0.2086,-0.2067,-0.207,-0.2077,-0.2085,-0.2103,-0.213,-0.2119,-0.2119,-0.2128,-0.2135,-0.2155,-0.2156,-0.2185,-0.2154,-0.2155,-0.2156,-0.2156,-0.2241,-0.2242,0,0,0,0,0,0,-0.1972,-0.1987,-0.2084,-0.2089,-0.2024,-0.208,-0.2089,-0.2111,-0.2132,-0.2134,-0.2129,-0.2128,-0.2153,-0.2154,-0.2156,-0.2192,-0.2155,-0.2157,-0.2157,-0.2239,-0.2241,-0.2242,0,0,0,0,0,0,-0.1969,-0.1981,-0.2081,-0.2038,-0.2051,-0.2084,-0.2108,-0.2113,-0.2132,-0.2141,-0.2142,-0.2142,-0.2152,-0.2154,-0.2189,-0.2192,-0.2157,-0.2159,-0.2238,-0.224,-0.2242,-0.2268,0,0,0,0,0,0,-0.1965,-0.1979,-0.1994,-0.2038,-0.2054,-0.2124,-0.2109,-0.2115,-0.2139,-0.2139,-0.2153,-0.2152,-0.2151,-0.2187,-0.219,-0.2194,-0.216,-0.2236,-0.2239,-0.2241,-0.2266,-0.2271,-0.2276,0,0,0,0,0,-0.1961,-0.1988,-0.1995,-0.2006,-0.2072,-0.2125,-0.2134,-0.2152,-0.2141,-0.2161,-0.2175,-0.2152,-0.2204,-0.219,-0.2193,-0.2197,-0.2235,-0.2238,-0.2241,-0.2264,-0.227,-0.2275,0,0,0,0,0,0,-0.1928,-0.1993,-0.2,-0.2043,-0.2082,-0.2126,-0.215,-0.2157,-0.2186,-0.2182,-0.218,-0.2183,-0.2208,-0.221,-0.2194,-0.2231,-0.2211,-0.2215,-0.2227,-0.2233,-0.2238,-0.2215,-0.2161,0,0,0,0,0,-0.1931,-0.1976,-0.2024,-0.2058,-0.208,-0.2114,-0.2137,-0.215,-0.218,-0.2191,-0.2205,-0.2216,-0.2226,-0.2236,-0.2249,-0.2281,-0.2218,-0.2284,-0.2288,-0.2292,-0.2278,-0.2227,-0.2225,-0.2252,-0.2252,-0.2252,0,0,-0.1917,-0.1968,-0.1985,-0.2056,-0.2088,-0.2127,-0.2125,-0.2166,-0.2189,-0.2187,-0.2228,-0.2235,-0.2239,-0.227,-0.228,-0.227,-0.2243,-0.2296,-0.2299,-0.2283,-0.223,-0.2226,-0.2224,-0.2255,-0.2254,-0.2254,0,0,-0.1932,-0.197,-0.2014,-0.2056,-0.2116,-0.214,-0.2151,-0.2203,-0.2216,-0.2261,-0.2255,-0.2269,-0.2304,-0.2304,-0.2305,-0.2348,-0.2269,-0.2354,-0.2361,-0.2313,-0.2309,-0.2305,-0.217,-0.2154,-0.2358,-0.2358,-0.2358,0,-0.1901,-0.1978,-0.203,-0.2088,-0.2114,-0.2145,-0.2179,-0.2209,-0.2262,-0.2266,-0.2274,-0.2304,-0.2313,-0.2321,-0.234,-0.2354,-0.2287,-0.2336,-0.2315,-0.231,-0.2305,-0.2169,-0.2151,-0.236,-0.236,-0.2359,-0.2359,0,-0.1957,-0.2011,-0.2043,-0.2123,-0.216,-0.2198,-0.224,-0.2268,-0.2282,-0.2298,-0.2316,-0.2338,-0.2342,-0.2357,-0.2364,-0.2345,-0.2289,-0.2321,-0.2291,-0.2303,-0.2159,-0.214,-0.2362,-0.2362,-0.2361,-0.2361,0,0,-0.1871,-0.2043,-0.2047,-0.2084,-0.2177,-0.2199,-0.2248,-0.2281,-0.2276,-0.2328,-0.2316,-0.236,-0.2353,-0.2354,-0.2361,-0.2337,-0.2241,-0.2321,-0.2317,-0.2168,-0.2059,-0.19,-0.1862,-0.2272,-0.227,-0.2269,-0.195,0,-0.1878,-0.1986,-0.2074,-0.2131,-0.2171,-0.2225,-0.2256,-0.2287,-0.2305,-0.2306,-0.2319,-0.2313,-0.2357,-0.2342,-0.2333,-0.2267,-0.2199,-0.2319,-0.2085,-0.2076,-0.192,-0.184,-0.179,-0.1494,-0.1931,-0.1928,-0.1925,0,-0.1881,-0.1957,-0.2027,-0.2123,-0.214,-0.2169,-0.2189,-0.2227,-0.2246,-0.2257,-0.2268,-0.227,-0.2241,-0.2278,-0.2152,-0.2224,-0.2136,-0.2083,-0.207,-0.19,-0.1883,-0.1565,-0.1442,-0.1398,-0.1894,-0.1897,-0.1899,0,-0.1773,-0.1906,-0.1955,-0.199,-0.2103,-0.2114,-0.2154,-0.2189,-0.2185,-0.2203,-0.2169,-0.2179,-0.2114,-0.2074,-0.1969,-0.2053,-0.1783,-0.1883,-0.1638,-0.1623,-0.1519,-0.1498,-0.1311,-0.1761,-0.1762,-0.1763,-0.1764,0,-0.1737,-0.1766,-0.1899,-0.1919,-0.1926,-0.2031,-0.2017,-0.2064,-0.208,-0.2029,-0.2114,-0.2035,-0.2062,-0.1929,-0.1892,-0.165,-0.1703,-0.1583,-0.1529,-0.1521,-0.1505,-0.1416,-0.1423,-0.1751,-0.1753,-0.1756,-0.1758,0,-0.1612,-0.1717,-0.1757,-0.1862,-0.188,-0.187,-0.1923,-0.19,-0.1944,-0.187,-0.1859,-0.1856,-0.1691,-0.1647,-0.1504,-0.1469,-0.1226,-0.1214,-0.1152,-0.1098,-0.0886,-0.0897,-0.0569,-0.0513,-0.0909,-0.0903,-0.0898,0,-0.1562,-0.1581,-0.1669,-0.1667,-0.1709,-0.1723,-0.1715,-0.18,-0.1766,-0.1729,-0.1652,-0.1514,-0.1381,-0.11,-0.1024,-0.0847,-0.0897,-0.0691,-0.0873,-0.08,-0.0775,-0.0797,-0.0781,-0.0721,-0.0715,-0.071,-0.0706,0,-0.1446,-0.1479,-0.152,-0.1521,-0.1514,-0.1509,-0.1508,-0.1456,-0.1506,-0.1442,-0.1307,-0.1208,-0.0967,-0.0769,-0.0555,-0.0497,-0.0627,-0.0581,-0.0553,-0.0617,-0.0582,-0.0528,-0.0954,-0.0662,-0.0667,-0.067,-0.0672,-0.0674,-0.1327,-0.1325,-0.1377,-0.1365,-0.1352,-0.1287,-0.1248,-0.1216,-0.1134,-0.1033,-0.0986,-0.0831,-0.0639,-0.0356,-0.0255,-0.0111,-0.021,-0.0152,-0.0159,-0.0178,-0.0164,-0.0428,-0.007,-0.007,-0.0071,-0.0072,-0.0072,0,-0.1183,-0.1219,-0.1215,-0.1204,-0.1141,-0.118,-0.1104,-0.105,-0.091,-0.081,-0.0686,-0.0452,-0.0187,-0.0064,0.0159,0.0251,0.0183,0.026,0.0164,0.0162,-0.01,-0.014,0.0277,0.0277,0.0277,0.0277,0.0277,0.0277,-0.1109,-0.1093,-0.1119,-0.1009,-0.0987,-0.0909,-0.0851,-0.077,-0.0705,-0.0521,-0.0404,-0.0331,-0.0149,0.0272,0.0473,0.0479,0.0478,0.0537,0.0533,0.0243,0.0199,0.0156,0.0115,0.0578,0.0579,0.0755,0.0757,0.0758]}],[{"header":{"parameterUnit":"m.s-1","parameterCategory":2,"la1":30.2991,"la2":30.254,"lo1":-89.0895,"lo2":-89.0444,"dy":0.0017,"dx":0.0017,"nx":28,"ny":28,"refTime":"2023-09-27T09:00:00:Z","depth":"2","parameterNumber":2,"parameterNumberName":"U-component_of_CURRENTS"},"data":[0,0,0,0,0,0,0,0,0,0,0,0,0,0,0,0,0,0,0,0,0,0,0,0,0,0,0,0,0,0,0,0,0,0,0,0,0,0,0,0,0,0,0,0,0,0,0,0,0,0,0,0,0,0,0,0,0,0,0.0553,0.0553,0,0.0513,0.0513,0.0512,0.0536,0.0537,0.0538,0.054,0.0527,0.0525,0.0524,0,0,0,0,0,0,0,0,0,0,0,0,0,0.0636,0.0634,0.0553,0.0553,0.0553,0.0513,0.0513,0.0512,0.0536,0.0537,0.0539,0.054,0.0527,0.0526,0.0524,0,0,0,0,0,0,0,0,0,0,0,0,0,0.0598,0.0634,0.0554,0.056,0.056,0.0514,0.0513,0.0512,0.0536,0.0537,0.0539,0.0541,0.0528,0.0526,0.0524,0.0474,0,0,0.0517,0.0516,0,0,0,0,0,0,0,0,0.06,0.0595,0.056,0.0559,0.056,0.0532,0.0537,0.0501,0.0535,0.0544,0.054,0.0542,0.053,0.0528,0.0515,0.0474,0.0473,0.0517,0.0515,0.0515,0.0514,0,0,0,0,0,0,0,0.0602,0.0596,0.0537,0.0559,0.0559,0.056,0.0557,0.053,0.0528,0.0544,0.0545,0.0541,0.0531,0.0517,0.0515,0.0473,0.0517,0.0515,0.0514,0.0513,0.0498,0.0499,0,0,0,0,0,0,0.0607,0.0599,0.0538,0.0536,0.0585,0.0557,0.0553,0.0539,0.0528,0.0527,0.054,0.0542,0.052,0.0518,0.0515,0.0541,0.0515,0.0513,0.0511,0.0497,0.0498,0.0499,0,0,0,0,0,0,0.0608,0.0601,0.054,0.0568,0.056,0.0554,0.0537,0.0537,0.0551,0.0524,0.0525,0.0558,0.0521,0.0518,0.0523,0.0538,0.0512,0.051,0.0496,0.0497,0.0499,0.0539,0,0,0,0,0,0,0.0611,0.0602,0.0601,0.0567,0.0559,0.053,0.0535,0.0535,0.0544,0.0548,0.0539,0.0538,0.0522,0.0527,0.0521,0.0534,0.0508,0.0495,0.0497,0.0498,0.0537,0.0542,0.0546,0,0,0,0,0,0.0614,0.0601,0.06,0.0594,0.0554,0.0531,0.0527,0.0528,0.0544,0.0548,0.0553,0.054,0.0534,0.0525,0.0519,0.0532,0.0494,0.0496,0.0498,0.0535,0.0541,0.0546,0,0,0,0,0,0,0.0631,0.0601,0.06,0.0578,0.0566,0.0536,0.0538,0.054,0.0543,0.0556,0.0542,0.0541,0.0553,0.0536,0.0527,0.0535,0.0515,0.0516,0.0545,0.0551,0.0555,0.0556,0.0506,0,0,0,0,0,0.0633,0.0623,0.0594,0.0581,0.0577,0.0563,0.0558,0.0557,0.055,0.0555,0.0551,0.0551,0.0548,0.0548,0.0539,0.0532,0.0546,0.054,0.0545,0.0549,0.0547,0.0583,0.0591,0.0506,0.0506,0.0506,0,0,0.0635,0.062,0.0613,0.0586,0.0578,0.0565,0.0565,0.0561,0.0558,0.055,0.056,0.0565,0.0552,0.0555,0.0559,0.0547,0.0586,0.0552,0.0555,0.0551,0.0586,0.0594,0.0601,0.0507,0.0507,0.0507,0,0,0.0632,0.0623,0.0615,0.0606,0.0595,0.0581,0.0588,0.0571,0.0578,0.0577,0.0583,0.0605,0.0585,0.059,0.0586,0.0609,0.0612,0.0608,0.0627,0.0662,0.0669,0.0676,0.0729,0.074,0.0608,0.0608,0.0608,0,0.0637,0.0618,0.0611,0.0603,0.0595,0.0594,0.0584,0.058,0.0573,0.0579,0.059,0.0603,0.0601,0.0612,0.0628,0.062,0.0645,0.0606,0.0669,0.0675,0.0681,0.0734,0.0745,0.061,0.061,0.061,0.061,0,0.0626,0.0617,0.0613,0.0601,0.0596,0.0586,0.0577,0.0585,0.0597,0.0596,0.0623,0.0631,0.0642,0.065,0.0644,0.0683,0.0692,0.0674,0.0654,0.0692,0.0746,0.0757,0.0614,0.0613,0.0612,0.0612,0,0,0.0609,0.0604,0.0606,0.0603,0.0594,0.0583,0.0587,0.0582,0.0592,0.0611,0.063,0.0651,0.0674,0.0673,0.0682,0.0713,0.0792,0.0714,0.0715,0.0768,0.089,0.0739,0.0737,0.0785,0.0787,0.0788,0.092,0,0.06,0.0589,0.0589,0.058,0.0569,0.0574,0.0575,0.058,0.0591,0.0611,0.0642,0.0663,0.0676,0.0695,0.0732,0.076,0.0819,0.0759,0.0844,0.0847,0.0708,0.0742,0.0602,0.0692,0.0931,0.0932,0.0934,0,0.058,0.0577,0.0568,0.0567,0.0565,0.0568,0.0575,0.0576,0.0602,0.0616,0.0653,0.0673,0.0724,0.0733,0.0827,0.0788,0.0854,0.0887,0.0892,0.0738,0.0714,0.0687,0.0703,0.0952,0.0951,0.0949,0.0948,0,0.0562,0.0558,0.0554,0.0552,0.0553,0.0563,0.0571,0.0587,0.0599,0.0629,0.065,0.07,0.0734,0.0808,0.0866,0.0862,0.0967,0.0968,0.091,0.0902,0.0788,0.0765,0.1069,0.1069,0.1068,0.1068,0.1068,0,0.0537,0.0534,0.0553,0.0549,0.0567,0.0563,0.0574,0.0597,0.062,0.0627,0.0664,0.0681,0.0754,0.0809,0.0879,0.0904,0.0986,0.0917,0.0916,0.0798,0.0775,0.0993,0.0983,0.1073,0.1072,0.1071,0.107,0,0.0511,0.0521,0.0518,0.0536,0.0559,0.057,0.0598,0.0595,0.0623,0.0636,0.0652,0.0692,0.0728,0.0798,0.0902,0.0898,0.0952,0.096,0.0813,0.0788,0.0879,0.087,0.0914,0.091,0.0906,0.0903,0.09,0,0.0495,0.049,0.0524,0.054,0.0557,0.0574,0.0586,0.0611,0.0603,0.0626,0.0633,0.0672,0.066,0.0731,0.0714,0.0778,0.0896,0.0704,0.0647,0.0864,0.086,0.0856,0.0852,0.0557,0.0552,0.0548,0.0544,0,0.0472,0.0487,0.0498,0.054,0.0564,0.0554,0.0571,0.0572,0.0569,0.0568,0.0558,0.0553,0.0553,0.0482,0.051,0.0543,0.0659,0.0612,0.0902,0.0571,0.0524,0.052,0.0529,0.0506,0.051,0.0513,0.0515,0.0516,0.0472,0.0476,0.0507,0.0541,0.0555,0.0526,0.0511,0.0483,0.046,0.0408,0.0434,0.0342,0.0363,0.0256,0.03,0.031,0.0385,0.0393,0.0409,0.0429,0.0317,0.0259,0.0176,0.0178,0.0179,0.0181,0.0182,0,0.0476,0.0489,0.0508,0.0533,0.0518,0.0527,0.0494,0.044,0.0371,0.0273,0.0217,0.0092,0.001,0.0068,-0.0015,0.0008,0.0059,0.0045,0.0105,0.0138,0.0169,0.0048,-0.0165,-0.0165,-0.0165,-0.0165,0,0,0.0482,0.0501,0.0501,0.0498,0.0497,0.0459,0.0417,0.0325,0.0241,0.0081,-0.0053,-0.0114,-0.0068,-0.0172,-0.0132,-0.0168,-0.0002,-0.0168,0.009,0.0185,0.0217,0.0326,0.0169,0,0,0,0,0]},{"header":{"parameterUnit":"m.s-1","parameterCategory":2,"la1":30.2991,"la2":30.254,"lo1":-89.0895,"lo2":-89.0444,"dy":0.0017,"dx":0.0017,"nx":28,"ny":28,"refTime":"2023-09-27T09:00:00:Z","depth":"2","parameterNumber":3,"parameterNumberName":"V-component_of_CURRENTS"},"data":[0,0,0,0,0,0,0,0,0,0,0,0,0,0,0,0,0,0,0,0,0,0,0,0,0,0,0,0,0,0,0,0,0,0,0,0,0,0,0,0,0,0,0,0,0,0,0,0,0,0,0,0,0,0,0,0,0,0,0.0232,0.0232,0,0.0254,0.0254,0.0254,0.0231,0.023,0.0229,0.0229,0.0242,0.0243,0.0245,0,0,0,0,0,0,0,0,0,0,0,0,0,0.0222,0.0222,0.0232,0.0232,0.0232,0.0254,0.0254,0.0255,0.0232,0.023,0.0229,0.0228,0.0242,0.0243,0.0245,0,0,0,0,0,0,0,0,0,0,0,0,0,0.0234,0.0222,0.0232,0.0223,0.0222,0.0254,0.0254,0.0255,0.0232,0.023,0.0229,0.0228,0.0241,0.0243,0.0245,0.0286,0,0,0.0251,0.0252,0,0,0,0,0,0,0,0,0.0233,0.0234,0.0224,0.0223,0.0222,0.0237,0.0255,0.0264,0.0232,0.0229,0.0228,0.0227,0.024,0.0242,0.0251,0.0287,0.0287,0.0251,0.0252,0.0253,0.0253,0,0,0,0,0,0,0,0.0232,0.0234,0.0241,0.0224,0.0223,0.0235,0.0235,0.0257,0.0243,0.0229,0.0227,0.0229,0.024,0.0249,0.0251,0.0287,0.0251,0.0252,0.0254,0.0254,0.0282,0.0282,0,0,0,0,0,0,0.0227,0.0233,0.0241,0.0242,0.0223,0.0236,0.0236,0.0235,0.0243,0.0243,0.023,0.0228,0.0247,0.0249,0.0251,0.0234,0.0253,0.0255,0.0256,0.0282,0.0282,0.0281,0,0,0,0,0,0,0.0226,0.0227,0.024,0.0237,0.0239,0.0237,0.0237,0.0236,0.0217,0.0244,0.0243,0.0208,0.0246,0.0249,0.0246,0.0237,0.0255,0.0257,0.0283,0.0282,0.0282,0.0242,0,0,0,0,0,0,0.0226,0.0227,0.0216,0.0237,0.0239,0.0246,0.0238,0.0238,0.0222,0.0218,0.0226,0.0227,0.0245,0.0243,0.0248,0.0239,0.0259,0.0283,0.0283,0.0282,0.0243,0.024,0.0236,0,0,0,0,0,0.0226,0.0218,0.0216,0.0216,0.0227,0.0246,0.0248,0.0243,0.0222,0.0219,0.0214,0.0225,0.0241,0.0244,0.025,0.0242,0.0284,0.0283,0.0282,0.0245,0.024,0.0237,0,0,0,0,0,0,0.0207,0.0216,0.0213,0.0208,0.022,0.0241,0.0232,0.0229,0.0224,0.0206,0.0224,0.0226,0.0221,0.0237,0.0239,0.0247,0.0263,0.0264,0.0233,0.0229,0.0226,0.0238,0.026,0,0,0,0,0,0.02,0.0194,0.0211,0.0205,0.0205,0.0213,0.0214,0.0211,0.0215,0.0209,0.0212,0.0216,0.023,0.023,0.0246,0.0252,0.0264,0.0249,0.0246,0.0243,0.0256,0.0259,0.0257,0.0278,0.0278,0.0278,0,0,0.0193,0.0195,0.0191,0.02,0.0203,0.0211,0.0209,0.0202,0.0206,0.0213,0.0202,0.0205,0.0229,0.0233,0.0232,0.0239,0.0239,0.0242,0.0239,0.0255,0.0258,0.0256,0.0254,0.0278,0.0278,0.0278,0,0,0.0182,0.0172,0.0167,0.0175,0.0175,0.0188,0.0179,0.0185,0.018,0.0178,0.0182,0.0181,0.0191,0.0215,0.0227,0.0217,0.0222,0.0206,0.0198,0.0199,0.0198,0.0196,0.0192,0.0191,0.0202,0.0202,0.0202,0,0.0168,0.0168,0.0169,0.0169,0.0174,0.0173,0.0177,0.0182,0.0184,0.019,0.0164,0.0186,0.0193,0.0224,0.0207,0.0212,0.0202,0.021,0.0194,0.0194,0.0193,0.019,0.0189,0.02,0.02,0.02,0.02,0,0.0168,0.0158,0.0154,0.0156,0.0164,0.0162,0.0177,0.0173,0.0157,0.0168,0.0173,0.0181,0.0193,0.019,0.019,0.0195,0.0184,0.019,0.0204,0.0189,0.0186,0.0186,0.0197,0.0198,0.0198,0.0199,0,0,0.016,0.0154,0.0149,0.015,0.0154,0.0165,0.017,0.0192,0.0196,0.0186,0.02,0.0204,0.0191,0.0205,0.0205,0.0202,0.0173,0.0178,0.0179,0.0173,0.0156,0.0225,0.0232,0.0158,0.0158,0.0159,0.0149,0,0.0157,0.0152,0.0155,0.0157,0.0159,0.0167,0.018,0.0195,0.0198,0.0209,0.022,0.0214,0.0203,0.018,0.0184,0.0167,0.0173,0.0175,0.0175,0.0176,0.0238,0.0235,0.0193,0.0188,0.015,0.015,0.015,0,0.0159,0.0157,0.0149,0.0162,0.0164,0.0159,0.0182,0.0191,0.0216,0.0209,0.0215,0.0216,0.0204,0.0193,0.0178,0.0165,0.0162,0.016,0.016,0.0246,0.0246,0.0201,0.019,0.015,0.015,0.015,0.015,0,0.0162,0.0158,0.015,0.0151,0.0162,0.0154,0.0154,0.0177,0.0152,0.0185,0.0148,0.019,0.0145,0.0162,0.0143,0.0138,0.0138,0.0138,0.0219,0.0222,0.0204,0.0207,0.0163,0.0163,0.0163,0.0163,0.0163,0,0.0168,0.0162,0.0136,0.0132,0.0099,0.0131,0.0112,0.0109,0.0101,0.0105,0.0114,0.0114,0.0122,0.0126,0.0145,0.0175,0.0136,0.0229,0.0233,0.0188,0.019,0.0178,0.018,0.0163,0.0163,0.0163,0.0163,0,0.0173,0.0155,0.0137,0.0122,0.0085,0.0062,-0.0003,-0.0003,-0.0016,-0.0018,-0.0036,-0.0016,0.0027,0.0063,0.0103,0.015,0.0197,0.023,0.0181,0.0183,0.0279,0.0279,0.0315,0.0318,0.032,0.0321,0.0323,0,0.0177,0.0165,0.0092,0.0037,0.0005,-0.0039,-0.0081,-0.0099,-0.0088,-0.0063,-0.0062,-0.0045,0.005,0.011,0.0193,0.0268,0.0257,0.0279,0.03,0.0299,0.0298,0.0295,0.0291,0.0235,0.0236,0.0236,0.0237,0,0.0186,0.0145,0.0129,-0.0025,-0.0106,-0.0129,-0.0166,-0.0184,-0.0123,-0.0122,-0.003,0.0035,0.0121,0.021,0.0286,0.0326,0.0267,0.0299,0.0286,0.023,0.0231,0.0228,0.0226,0.0241,0.0241,0.0241,0.024,0.024,0.0175,0.0147,0.0062,-0.0072,-0.0156,-0.0169,-0.0164,-0.0132,-0.0107,-0.0036,0.0045,0.0123,0.0197,0.0309,0.0351,0.0349,0.0379,0.0362,0.0356,0.035,0.037,0.0378,0.0417,0.0418,0.0418,0.0419,0.0419,0,0.0155,0.0103,0.0002,-0.0109,-0.0162,-0.0217,-0.0192,-0.0142,-0.0048,0.0006,0.0102,0.0193,0.0274,0.0294,0.0314,0.0383,0.0332,0.0366,0.0274,0.027,0.0267,0.0278,0.0303,0.0303,0.0303,0.0302,0,0,0.0138,0.0054,0.0003,-0.0101,-0.0158,-0.019,-0.0142,-0.0085,-0.0043,0.0041,0.0072,0.0178,0.0249,0.0256,0.0305,0.0282,0.0253,0.0271,0.0359,0.024,0.0235,0.0264,0.028,0,0,0,0,0]}],[{"header":{"parameterUnit":"m.s-1","parameterCategory":2,"la1":30.2991,"la2":30.254,"lo1":-89.0895,"lo2":-89.0444,"dy":0.0017,"dx":0.0017,"nx":28,"ny":28,"refTime":"2023-09-27T09:00:00:Z","depth":"4","parameterNumber":2,"parameterNumberName":"U-component_of_CURRENTS"},"data":[0,0,0,0,0,0,0,0,0,0,0,0,0,0,0,0,0,0,0,0,0,0,0,0,0,0,0,0,0,0,0,0,0,0,0,0,0,0,0,0,0,0,0,0,0,0,0,0,0,0,0,0,0,0,0,0,0,0,-0.0445,-0.0445,0,-0.0445,-0.0445,-0.0445,-0.0449,-0.0449,-0.0449,-0.0449,-0.045,-0.0449,-0.0449,0,0,0,0,0,0,0,0,0,0,0,0,0,-0.044,-0.044,-0.0445,-0.0444,-0.0444,-0.0445,-0.0445,-0.0445,-0.0449,-0.0449,-0.0449,-0.0449,-0.045,-0.0449,-0.0449,0,0,0,0,0,0,0,0,0,0,0,0,0,-0.0442,-0.044,-0.0445,-0.0446,-0.0446,-0.0445,-0.0445,-0.0445,-0.0449,-0.0449,-0.0449,-0.0449,-0.045,-0.045,-0.0449,-0.0446,0,0,-0.0449,-0.0449,0,0,0,0,0,0,0,0,-0.0442,-0.0442,-0.0446,-0.0446,-0.0446,-0.0447,-0.0444,-0.0445,-0.0449,-0.0448,-0.0449,-0.0449,-0.0448,-0.0448,-0.0448,-0.0446,-0.0446,-0.0449,-0.0449,-0.0449,-0.0449,0,0,0,0,0,0,0,-0.0441,-0.0442,-0.0445,-0.0446,-0.0446,-0.0445,-0.0445,-0.0444,-0.0448,-0.0448,-0.0448,-0.0448,-0.0449,-0.0448,-0.0448,-0.0446,-0.0449,-0.0449,-0.0449,-0.0449,-0.0452,-0.0453,0,0,0,0,0,0,-0.0441,-0.0442,-0.0445,-0.0445,-0.0444,-0.0445,-0.0445,-0.0447,-0.0448,-0.0448,-0.0448,-0.0448,-0.0449,-0.0449,-0.0448,-0.0423,-0.0449,-0.0449,-0.0449,-0.0452,-0.0452,-0.0453,0,0,0,0,0,0,-0.0441,-0.0442,-0.0445,-0.0443,-0.0443,-0.0445,-0.0446,-0.0446,-0.0452,-0.0448,-0.0448,-0.0454,-0.0449,-0.0449,-0.0448,-0.0424,-0.0449,-0.0449,-0.0452,-0.0452,-0.0453,-0.0387,0,0,0,0,0,0,-0.0441,-0.0442,-0.0445,-0.0443,-0.0443,-0.0447,-0.0446,-0.0446,-0.0452,-0.0452,-0.0453,-0.0453,-0.0449,-0.0448,-0.0448,-0.0425,-0.0449,-0.0452,-0.0452,-0.0452,-0.0389,-0.0385,-0.0381,0,0,0,0,0,-0.0441,-0.0445,-0.0445,-0.0445,-0.0447,-0.0447,-0.0447,-0.0448,-0.0452,-0.0454,-0.0452,-0.0453,-0.045,-0.0448,-0.0448,-0.0424,-0.0452,-0.0452,-0.0452,-0.0391,-0.0386,-0.0381,0,0,0,0,0,0,-0.0445,-0.0446,-0.0446,-0.045,-0.0449,-0.0448,-0.0452,-0.0452,-0.0453,-0.0456,-0.0452,-0.0451,-0.0448,-0.0452,-0.045,-0.043,-0.0452,-0.0452,-0.0405,-0.0401,-0.0397,-0.0381,-0.0449,0,0,0,0,0,-0.0447,-0.0452,-0.0449,-0.0454,-0.0455,-0.0455,-0.0456,-0.0456,-0.0456,-0.0457,-0.0455,-0.0454,-0.0448,-0.0438,-0.0445,-0.0426,-0.0439,-0.0415,-0.0411,-0.0408,-0.0397,-0.0397,-0.0391,-0.0454,-0.0454,-0.0454,0,0,-0.0451,-0.0451,-0.0455,-0.0455,-0.0457,-0.0452,-0.0456,-0.0461,-0.0458,-0.0456,-0.0455,-0.045,-0.0447,-0.0429,-0.0426,-0.0425,-0.0401,-0.0408,-0.0405,-0.0396,-0.0396,-0.039,-0.0384,-0.0454,-0.0454,-0.0454,0,0,-0.0456,-0.0462,-0.0464,-0.0461,-0.0461,-0.0459,-0.0461,-0.046,-0.0464,-0.046,-0.0455,-0.0433,-0.0435,-0.0409,-0.04,-0.0383,-0.0394,-0.0389,-0.0334,-0.0333,-0.0327,-0.0322,-0.0342,-0.034,-0.037,-0.037,-0.037,0,-0.0459,-0.0459,-0.0465,-0.046,-0.0458,-0.0461,-0.0457,-0.0459,-0.0456,-0.0453,-0.046,-0.0432,-0.0423,-0.0378,-0.0355,-0.037,-0.038,-0.0343,-0.0325,-0.032,-0.0316,-0.0338,-0.0336,-0.0367,-0.0367,-0.0367,-0.0368,0,-0.0461,-0.0457,-0.0459,-0.0452,-0.0453,-0.0451,-0.045,-0.0454,-0.0458,-0.0446,-0.0425,-0.0403,-0.0371,-0.0364,-0.0343,-0.0296,-0.0317,-0.0331,-0.0328,-0.0305,-0.0331,-0.033,-0.0362,-0.0363,-0.0364,-0.0365,0,0,-0.0471,-0.0461,-0.0461,-0.0453,-0.0447,-0.0447,-0.0449,-0.0442,-0.0431,-0.0421,-0.04,-0.0353,-0.0319,-0.0305,-0.0274,-0.0251,-0.0219,-0.0256,-0.0257,-0.0262,-0.0227,-0.0222,-0.0221,-0.022,-0.0219,-0.0218,-0.026,0,-0.0467,-0.0452,-0.0454,-0.0442,-0.0432,-0.0438,-0.0436,-0.043,-0.042,-0.0401,-0.037,-0.0333,-0.0303,-0.0262,-0.0232,-0.0232,-0.021,-0.0207,-0.0261,-0.0263,-0.0248,-0.0216,-0.0216,-0.0259,-0.0259,-0.0259,-0.0259,0,-0.0464,-0.0451,-0.044,-0.0428,-0.0428,-0.0425,-0.0419,-0.0409,-0.0384,-0.0368,-0.0315,-0.0295,-0.0231,-0.0225,-0.0195,-0.0192,-0.0189,-0.0198,-0.0201,-0.0214,-0.0254,-0.0287,-0.0257,-0.0257,-0.0257,-0.0257,-0.0257,0,-0.0457,-0.0443,-0.0434,-0.0428,-0.0417,-0.0424,-0.0415,-0.0396,-0.0386,-0.0324,-0.0303,-0.0247,-0.0212,-0.0205,-0.0191,-0.0188,-0.0194,-0.0209,-0.0212,-0.0214,-0.0235,-0.024,-0.0192,-0.0192,-0.0192,-0.0192,-0.0192,0,-0.0442,-0.0434,-0.0431,-0.042,-0.0423,-0.0408,-0.0392,-0.0379,-0.0343,-0.0317,-0.0259,-0.024,-0.02,-0.0199,-0.0198,-0.0197,-0.02,-0.0193,-0.0212,-0.0212,-0.0213,-0.0236,-0.024,-0.0194,-0.0193,-0.0193,-0.0193,0,-0.043,-0.0427,-0.042,-0.0414,-0.0418,-0.0414,-0.0394,-0.0377,-0.0325,-0.0293,-0.0269,-0.0232,-0.0218,-0.0207,-0.0207,-0.0201,-0.0213,-0.0213,-0.0222,-0.0244,-0.0238,-0.0239,-0.0227,-0.0227,-0.0227,-0.0227,-0.0227,0,-0.0423,-0.0412,-0.0421,-0.0435,-0.0437,-0.0421,-0.042,-0.0375,-0.0356,-0.0301,-0.0304,-0.0266,-0.0239,-0.024,-0.0232,-0.0235,-0.0226,-0.0231,-0.0207,-0.0215,-0.0235,-0.0237,-0.0238,-0.0227,-0.0227,-0.0227,-0.0227,0,-0.0402,-0.0413,-0.0411,-0.0432,-0.0446,-0.0442,-0.0431,-0.0412,-0.0355,-0.0332,-0.0299,-0.0269,-0.0258,-0.0247,-0.0228,-0.024,-0.0227,-0.023,-0.023,-0.0208,-0.0215,-0.0235,-0.0236,-0.0226,-0.0226,-0.0226,-0.0226,0,-0.0397,-0.04,-0.0404,-0.0425,-0.0444,-0.0444,-0.0436,-0.0411,-0.0379,-0.0321,-0.0331,-0.0288,-0.0272,-0.0254,-0.0263,-0.024,-0.0238,-0.0227,-0.0227,-0.0227,-0.0203,-0.021,-0.0224,0,0,0,0,0,-0.0374,-0.0373,-0.0395,-0.0402,-0.042,-0.0431,-0.044,-0.0427,-0.0387,-0.0362,-0.0328,-0.0314,-0.0272,-0.0279,-0.0254,-0.0278,-0.0249,-0.0252,-0.0239,-0.0225,-0.0225,-0.0193,0,0,0,0,0,0,-0.0363,-0.037,-0.0379,-0.0372,-0.0376,-0.0383,-0.039,-0.0379,-0.0362,-0.0332,-0.0322,-0.03,-0.0283,-0.027,-0.0246,-0.0245,-0.0233,-0.024,-0.0239,-0.0224,-0.0225,-0.0225,-0.0193,0,0,0,0,0]},{"header":{"parameterUnit":"m.s-1","parameterCategory":2,"la1":30.2991,"la2":30.254,"lo1":-89.0895,"lo2":-89.0444,"dy":0.0017,"dx":0.0017,"nx":28,"ny":28,"refTime":"2023-09-27T09:00:00:Z","depth":"4","parameterNumber":3,"parameterNumberName":"V-component_of_CURRENTS"},"data":[0,0,0,0,0,0,0,0,0,0,0,0,0,0,0,0,0,0,0,0,0,0,0,0,0,0,0,0,0,0,0,0,0,0,0,0,0,0,0,0,0,0,0,0,0,0,0,0,0,0,0,0,0,0,0,0,0,0,0.0504,0.0504,0,0.0548,0.0549,0.0549,0.0576,0.0576,0.0576,0.0576,0.0605,0.0605,0.0606,0,0,0,0,0,0,0,0,0,0,0,0,0,0.0454,0.0455,0.0504,0.0504,0.0505,0.0548,0.0549,0.055,0.0576,0.0576,0.0576,0.0576,0.0604,0.0605,0.0606,0,0,0,0,0,0,0,0,0,0,0,0,0,0.0485,0.0455,0.0504,0.0523,0.0525,0.0548,0.0549,0.055,0.0576,0.0576,0.0576,0.0577,0.0604,0.0605,0.0606,0.061,0,0,0.0609,0.061,0,0,0,0,0,0,0,0,0.0483,0.0487,0.052,0.0522,0.0524,0.0557,0.0542,0.0569,0.0576,0.0557,0.0576,0.0577,0.0587,0.0589,0.0598,0.0611,0.0612,0.0609,0.061,0.061,0.0611,0,0,0,0,0,0,0,0.0481,0.0485,0.0522,0.052,0.0523,0.0534,0.0538,0.0547,0.0571,0.0559,0.0561,0.0565,0.0588,0.0597,0.0599,0.0613,0.0609,0.061,0.0611,0.0611,0.0645,0.0646,0,0,0,0,0,0,0.0474,0.0483,0.052,0.0523,0.0503,0.0534,0.0539,0.0546,0.0571,0.0575,0.0565,0.0566,0.0595,0.0598,0.06,0.0676,0.061,0.0611,0.0612,0.0645,0.0646,0.0646,0,0,0,0,0,0,0.0473,0.0477,0.0519,0.0504,0.051,0.0535,0.0543,0.0547,0.0565,0.0576,0.0579,0.0579,0.0595,0.0598,0.0611,0.0674,0.0612,0.0613,0.0645,0.0645,0.0646,0.0782,0,0,0,0,0,0,0.0471,0.0476,0.0484,0.0503,0.051,0.0538,0.0543,0.0548,0.0566,0.0569,0.0588,0.0591,0.0596,0.0609,0.0612,0.0674,0.0613,0.0644,0.0645,0.0646,0.0777,0.0787,0.0796,0,0,0,0,0,0.0469,0.048,0.0484,0.0489,0.0518,0.0538,0.0543,0.0561,0.0567,0.0577,0.0586,0.0591,0.0615,0.061,0.0613,0.0678,0.0644,0.0645,0.0645,0.0773,0.0785,0.0796,0,0,0,0,0,0,0.0468,0.0485,0.0489,0.0506,0.0522,0.0543,0.0556,0.0566,0.0582,0.0585,0.0593,0.0596,0.064,0.0616,0.061,0.0681,0.0631,0.0632,0.0727,0.0738,0.0747,0.0728,0.0614,0,0,0,0,0,0.0468,0.048,0.0496,0.0511,0.0519,0.0538,0.055,0.0561,0.0576,0.0584,0.0596,0.0607,0.0643,0.0654,0.0667,0.0697,0.0662,0.0735,0.0744,0.0753,0.0734,0.0729,0.0737,0.0648,0.0648,0.0648,0,0,0.047,0.0483,0.0489,0.0511,0.0526,0.0536,0.0546,0.0567,0.0587,0.0583,0.0613,0.0643,0.0655,0.0706,0.0722,0.0696,0.0762,0.0753,0.0762,0.0737,0.0731,0.074,0.0748,0.0649,0.0649,0.0648,0,0,0.0481,0.0493,0.0505,0.0517,0.0539,0.0545,0.0551,0.0574,0.0598,0.0625,0.0648,0.0695,0.0721,0.076,0.0781,0.0833,0.0815,0.0851,0.089,0.0888,0.0895,0.0902,0.0891,0.0896,0.0853,0.0854,0.0854,0,0.0481,0.0502,0.0513,0.0528,0.0538,0.0548,0.0561,0.0585,0.0611,0.0651,0.064,0.0724,0.0747,0.083,0.0865,0.0862,0.0847,0.0863,0.0903,0.0908,0.0913,0.09,0.0903,0.086,0.0859,0.0859,0.0858,0,0.0501,0.0516,0.0526,0.0542,0.0553,0.0568,0.0591,0.0616,0.0642,0.0687,0.0769,0.0795,0.0848,0.0884,0.0901,0.0968,0.0946,0.0926,0.0886,0.0931,0.0914,0.0914,0.087,0.0867,0.0865,0.0864,0,0,0.0497,0.0532,0.0535,0.0548,0.0563,0.0575,0.0608,0.0663,0.072,0.0753,0.082,0.091,0.0947,0.0967,0.1003,0.1009,0.106,0.0992,0.0989,0.0999,0.1055,0.0921,0.0908,0.106,0.106,0.1061,0.1041,0,0.0508,0.0535,0.0552,0.0573,0.0582,0.0604,0.0656,0.071,0.0758,0.0823,0.0879,0.096,0.0974,0.1027,0.1039,0.1057,0.1063,0.1066,0.0991,0.0988,0.0878,0.0904,0.1062,0.1041,0.1041,0.1041,0.1041,0,0.052,0.0535,0.0564,0.0609,0.0623,0.067,0.0742,0.0787,0.0887,0.0926,0.0991,0.1024,0.1084,0.106,0.1086,0.1092,0.1081,0.1069,0.1067,0.0884,0.0853,0.0976,0.1041,0.1041,0.1041,0.1041,0.1041,0,0.0505,0.0542,0.0569,0.0578,0.0635,0.0704,0.0767,0.0868,0.0912,0.1008,0.1026,0.1095,0.1109,0.1111,0.1091,0.1105,0.1065,0.1078,0.0938,0.0929,0.0999,0.0992,0.1064,0.1064,0.1064,0.1064,0.1064,0,0.0502,0.0518,0.0596,0.061,0.0708,0.0753,0.0868,0.094,0.1014,0.1051,0.1108,0.1086,0.1118,0.1091,0.1089,0.0997,0.1065,0.093,0.0908,0.1058,0.1058,0.1001,0.0994,0.1063,0.1064,0.1064,0.1064,0,0.0469,0.0513,0.0544,0.0641,0.071,0.079,0.0928,0.0971,0.1064,0.1084,0.1103,0.1089,0.1031,0.1028,0.1001,0.0965,0.0917,0.0865,0.1014,0.1003,0.0791,0.0791,0.0724,0.0719,0.0714,0.0711,0.0708,0,0.0452,0.0466,0.0567,0.0628,0.0702,0.0831,0.0909,0.1012,0.1016,0.1048,0.1015,0.0981,0.0953,0.0807,0.0818,0.0778,0.076,0.0762,0.0788,0.0767,0.0753,0.076,0.0766,0.0701,0.07,0.0699,0.0698,0,0.0402,0.0444,0.0467,0.0598,0.0707,0.0769,0.0885,0.0869,0.0922,0.0999,0.0898,0.085,0.0748,0.0692,0.0651,0.0631,0.0787,0.0718,0.0728,0.0752,0.0739,0.0731,0.0742,0.0683,0.0685,0.0686,0.0687,0,0.0363,0.0377,0.0434,0.0554,0.0652,0.0681,0.0743,0.0735,0.0756,0.0788,0.0736,0.0698,0.0709,0.0608,0.0574,0.0533,0.0529,0.0551,0.0569,0.0586,0.0545,0.0509,0.035,0,0,0,0,0,0.0331,0.0349,0.0404,0.0499,0.0564,0.0637,0.0694,0.0716,0.0761,0.0663,0.0705,0.0609,0.0522,0.0494,0.0416,0.0487,0.0525,0.0396,0.0559,0.0601,0.0618,0.0579,0,0,0,0,0,0,0.0312,0.0343,0.0366,0.042,0.0466,0.0522,0.054,0.0564,0.0509,0.0564,0.0499,0.0586,0.0486,0.0556,0.0411,0.0407,0.0497,0.04,0.0398,0.0591,0.0606,0.062,0.0587,0,0,0,0,0]}]]